This is the latest recevied weather packets stored in our database for station/object K4CRS-13. If no packets are shown the sender has not sent any weather packets the latest 10 day(s).
| Time | Temp. | Humidity | Pressure | Rain* | Wind** | Luminosity | Snow |
|---|---|---|---|---|---|---|---|
| 1788052650 | 25° C | 85% | 1052.9 hPa | 0 mm | - | 0 W/m² | - |
| 1788052345 | 25° C | 85% | 1053.2 hPa | 0 mm | - | 0 W/m² | - |
| 1788052041 | 25° C | 85% | 1052.9 hPa | 0 mm | - | 0 W/m² | - |
| 1788051734 | 25° C | 85% | 1053 hPa | 0 mm | - | 0 W/m² | - |
| 1788051434 | 25° C | 84% | 1052.8 hPa | 0 mm | - | 0 W/m² | - |
| 1788051133 | 25.56° C | 83% | 1053 hPa | 0 mm | - | 0 W/m² | - |
| 1788050832 | 25.56° C | 83% | 1052.8 hPa | 0 mm | - | 0 W/m² | - |
| 1788050528 | 25.56° C | 81% | 1052.6 hPa | 0 mm | - | 0 W/m² | - |
| 1788050222 | 26.11° C | 80% | 1052.4 hPa | 0 mm | - | 0 W/m² | - |
| 1788049917 | 26.67° C | 78% | 1052.4 hPa | 0 mm | - | 1 W/m² | - |
| 1788049614 | 27.22° C | 76% | 1052.5 hPa | 0 mm | - | 2 W/m² | - |
| 1788049310 | 27.78° C | 73% | 1052.8 hPa | 0 mm | - | 3 W/m² | - |
| 1788049005 | 28.33° C | 70% | 1052.8 hPa | 0 mm | - | 6 W/m² | - |
| 1788048701 | 28.89° C | 68% | 1052.8 hPa | 0 mm | - | 8 W/m² | - |
| 1788048399 | 28.89° C | 66% | 1052.6 hPa | 0 mm | - | 12 W/m² | - |
| 1788048099 | 29.44° C | 65% | 1052.9 hPa | 0 mm | - | 15 W/m² | - |
| 1788047796 | 30° C | 63% | 1052.8 hPa | 0 mm | - | 20 W/m² | - |
| 1788047495 | 30.56° C | 61% | 1052.5 hPa | 0 mm | - | 25 W/m² | - |
| 1788047191 | 31.11° C | 60% | 1052.6 hPa | 0 mm | - | 30 W/m² | - |
| 1788046886 | 31.11° C | 59% | 1052.3 hPa | 0 mm | - | 37 W/m² | - |
| 1788046584 | 31.11° C | 59% | 1052.6 hPa | 0 mm | - | 44 W/m² | - |
| 1788046280 | 31.67° C | 58% | 1052.2 hPa | 0 mm | - | 47 W/m² | - |
| 1788045978 | 31.67° C | 57% | 1052.5 hPa | 0 mm | - | 44 W/m² | - |
| 1788045673 | 31.67° C | 56% | 1052.2 hPa | 0 mm | - | 65 W/m² | - |
| 1788045368 | 32.22° C | 56% | 1052.1 hPa | 0 mm | - | 75 W/m² | - |
* Rain latest hour (hover to see other rain measurements)
** Current wind speed in m/s (hover to see current wind gust speed)